ASA291 KSAN-KSFO

Flight info

Callsign ASA291
Flight time 1h 4m
Altitude 38000
Route PADRZ2 IKAYE RIZIN SPLNT STOKD SERFR SERFR4
Aircraft B38M/M-SDE1FGHILORVWXY/HB1

Departure

Time 2026-04-21 15:26
Airport San Diego International Airport (KSAN)

Arrival

Time 2026-04-21 16:31
Airport San Francisco International Airport (KSFO)
Time Latitude Longitude Altitude Speed Heading
2026-04-21 14:51 32.73420 -117.20075 24 ft 0 kts 212°
2026-04-21 15:16 32.73429 -117.20068 25 ft 4 kts 212°
2026-04-21 15:16 32.73452 -117.20051 26 ft 4 kts 212°
2026-04-21 15:16 32.73475 -117.20034 28 ft 4 kts 211°
2026-04-21 15:16 32.73498 -117.20019 30 ft 4 kts 205°
2026-04-21 15:17 32.73517 -117.20010 29 ft 0 kts 196°
2026-04-21 15:19 32.73511 -117.20009 26 ft 1 kts 158°
2026-04-21 15:20 32.73503 -117.19998 27 ft 4 kts 117°
2026-04-21 15:20 32.73502 -117.19993 28 ft 0 kts 105°
2026-04-21 15:20 32.73502 -117.19990 28 ft 2 kts 105°
2026-04-21 15:20 32.73491 -117.19940 26 ft 9 kts 104°
2026-04-21 15:21 32.73469 -117.19857 26 ft 11 kts 107°
2026-04-21 15:21 32.73447 -117.19758 29 ft 14 kts 106°
2026-04-21 15:21 32.73418 -117.19643 29 ft 15 kts 105°
2026-04-21 15:21 32.73388 -117.19521 30 ft 16 kts 104°
2026-04-21 15:22 32.73360 -117.19401 29 ft 14 kts 106°
2026-04-21 15:22 32.73331 -117.19284 26 ft 16 kts 107°
2026-04-21 15:22 32.73299 -117.19151 25 ft 18 kts 106°
2026-04-21 15:22 32.73265 -117.19009 25 ft 19 kts 107°
2026-04-21 15:23 32.73228 -117.18859 28 ft 16 kts 106°
2026-04-21 15:23 32.73198 -117.18735 20 ft 15 kts 105°
2026-04-21 15:23 32.73168 -117.18607 29 ft 18 kts 105°
2026-04-21 15:23 32.73129 -117.18451 27 ft 21 kts 106°
2026-04-21 15:24 32.73098 -117.18320 29 ft 17 kts 106°
2026-04-21 15:24 32.73075 -117.18228 25 ft 19 kts 107°
2026-04-21 15:24 32.73037 -117.18072 23 ft 20 kts 106°
2026-04-21 15:24 32.72999 -117.17914 21 ft 21 kts 108°
2026-04-21 15:25 32.72965 -117.17779 20 ft 15 kts 104°
2026-04-21 15:25 32.72957 -117.17665 22 ft 14 kts 65°
2026-04-21 15:25 32.73000 -117.17580 27 ft 12 kts 11°
2026-04-21 15:25 32.73039 -117.17654 24 ft 16 kts 286°
2026-04-21 15:26 32.73145 -117.18097 22 ft 97 kts 286°
2026-04-21 15:26 32.73399 -117.19153 38 ft 165 kts 285°
2026-04-21 15:26 32.73718 -117.20542 657 ft 179 kts 285°
2026-04-21 15:26 32.74067 -117.21982 1583 ft 184 kts 290°
2026-04-21 15:27 32.74634 -117.23363 2303 ft 200 kts 303°
2026-04-21 15:27 32.75522 -117.24801 2839 ft 225 kts 307°
2026-04-21 15:27 32.76516 -117.26336 3524 ft 244 kts 307°
2026-04-21 15:27 32.77561 -117.27991 4232 ft 260 kts 305°
2026-04-21 15:28 32.78635 -117.29720 5332 ft 259 kts 304°
2026-04-21 15:28 32.79713 -117.31464 6348 ft 264 kts 304°
2026-04-21 15:28 32.80849 -117.33208 7279 ft 269 kts 304°
2026-04-21 15:28 32.82008 -117.34994 8135 ft 276 kts 303°
2026-04-21 15:29 32.83193 -117.36829 9019 ft 283 kts 303°
2026-04-21 15:29 32.84404 -117.38710 9867 ft 290 kts 302°
2026-04-21 15:29 32.85651 -117.40646 10523 ft 303 kts 302°
2026-04-21 15:29 32.86972 -117.42697 10988 ft 320 kts 302°
2026-04-21 15:30 32.88355 -117.44848 11602 ft 331 kts 302°
2026-04-21 15:30 32.89757 -117.47030 12504 ft 333 kts 302°
2026-04-21 15:30 32.91174 -117.49237 13342 ft 337 kts 301°
2026-04-21 15:30 32.92596 -117.51454 14156 ft 341 kts 301°
2026-04-21 15:31 32.94042 -117.53705 14745 ft 348 kts 301°
2026-04-21 15:31 32.95490 -117.55955 15211 ft 349 kts 301°
2026-04-21 15:31 32.95531 -117.56018 15220 ft 349 kts 301°
2026-04-21 15:31 32.95952 -117.56676 15203 ft 348 kts 301°
2026-04-21 15:32 32.97423 -117.58974 15225 ft 350 kts 301°
2026-04-21 15:32 32.98896 -117.61274 16015 ft 348 kts 301°
2026-04-21 15:32 33.00370 -117.63577 16797 ft 351 kts 301°
2026-04-21 15:32 33.01865 -117.65913 17494 ft 356 kts 301°
2026-04-21 15:33 33.03376 -117.68275 18226 ft 359 kts 301°
2026-04-21 15:33 33.04895 -117.70652 18865 ft 362 kts 301°
2026-04-21 15:33 33.06488 -117.73006 19466 ft 371 kts 309°
2026-04-21 15:33 33.08418 -117.74993 20105 ft 375 kts 313°
2026-04-21 15:34 33.10414 -117.77040 20656 ft 379 kts 313°
2026-04-21 15:34 33.12425 -117.79095 21245 ft 382 kts 313°
2026-04-21 15:34 33.14453 -117.81163 21822 ft 385 kts 313°
2026-04-21 15:34 33.16508 -117.83257 22391 ft 389 kts 313°
2026-04-21 15:35 33.18570 -117.85359 22948 ft 392 kts 313°
2026-04-21 15:35 33.20527 -117.87622 23492 ft 392 kts 308°
2026-04-21 15:35 33.22452 -117.89959 23954 ft 396 kts 308°
2026-04-21 15:35 33.24397 -117.92296 24442 ft 398 kts 308°
2026-04-21 15:36 33.26331 -117.94609 24915 ft 400 kts 308°
2026-04-21 15:36 33.28302 -117.96962 25381 ft 402 kts 309°
2026-04-21 15:36 33.30294 -117.99337 25850 ft 404 kts 309°
2026-04-21 15:36 33.32287 -118.01714 26287 ft 406 kts 308°
2026-04-21 15:37 33.34292 -118.04108 26736 ft 408 kts 308°
2026-04-21 15:37 33.36309 -118.06518 27184 ft 410 kts 308°
2026-04-21 15:37 33.38330 -118.08936 27640 ft 412 kts 308°
2026-04-21 15:37 33.40373 -118.11379 28002 ft 416 kts 308°
2026-04-21 15:38 33.42425 -118.13836 28440 ft 418 kts 308°
2026-04-21 15:38 33.44488 -118.16309 28858 ft 420 kts 308°
2026-04-21 15:38 33.46561 -118.18794 29258 ft 422 kts 308°
2026-04-21 15:38 33.48615 -118.21258 29656 ft 424 kts 308°
2026-04-21 15:39 33.50710 -118.23773 30043 ft 427 kts 308°
2026-04-21 15:39 33.52811 -118.26298 30384 ft 429 kts 308°
2026-04-21 15:39 33.54918 -118.28833 30754 ft 429 kts 308°
2026-04-21 15:39 33.57029 -118.31373 31144 ft 430 kts 308°
2026-04-21 15:40 33.59147 -118.33924 31441 ft 432 kts 307°
2026-04-21 15:40 33.61272 -118.36485 31825 ft 433 kts 307°
2026-04-21 15:40 33.63391 -118.39039 32253 ft 432 kts 307°
2026-04-21 15:40 33.65505 -118.41591 32647 ft 432 kts 307°
2026-04-21 15:41 33.67625 -118.44153 33004 ft 432 kts 307°
2026-04-21 15:41 33.69739 -118.46707 33462 ft 430 kts 306°
2026-04-21 15:41 33.71832 -118.49239 34014 ft 425 kts 306°
2026-04-21 15:41 33.73909 -118.51748 34516 ft 421 kts 307°
2026-04-21 15:42 33.75969 -118.54240 34862 ft 421 kts 307°
2026-04-21 15:42 33.78027 -118.56736 35210 ft 419 kts 307°
2026-04-21 15:42 33.80070 -118.59214 35580 ft 417 kts 307°
2026-04-21 15:42 33.82108 -118.61687 35946 ft 414 kts 307°
2026-04-21 15:43 33.84131 -118.64146 36307 ft 412 kts 307°
2026-04-21 15:43 33.86118 -118.66562 36674 ft 410 kts 306°
2026-04-21 15:43 33.88121 -118.68998 37068 ft 407 kts 306°
2026-04-21 15:43 33.90107 -118.71416 37465 ft 405 kts 306°
2026-04-21 15:44 33.92086 -118.73828 37840 ft 403 kts 306°
2026-04-21 15:44 33.94055 -118.76230 38065 ft 404 kts 306°
2026-04-21 15:44 33.97998 -118.81041 38079 ft 401 kts 306°
2026-04-21 15:45 34.01885 -118.85793 38086 ft 401 kts 306°
2026-04-21 15:45 34.05800 -118.90584 38096 ft 401 kts 306°
2026-04-21 15:46 34.09718 -118.95382 38087 ft 400 kts 306°
2026-04-21 15:46 34.13648 -119.00223 38068 ft 402 kts 303°
2026-04-21 15:47 34.15273 -119.02868 38089 ft 388 kts 293°
2026-04-21 15:47 34.16693 -119.05642 38084 ft 391 kts 294°
2026-04-21 15:47 34.19554 -119.11182 38087 ft 390 kts 294°
2026-04-21 15:48 34.22436 -119.16778 38082 ft 390 kts 294°
2026-04-21 15:48 34.25304 -119.22352 38101 ft 391 kts 294°
2026-04-21 15:49 34.28169 -119.27930 38098 ft 392 kts 293°
2026-04-21 15:49 34.31052 -119.33555 38062 ft 391 kts 293°
2026-04-21 15:50 34.33915 -119.39147 38070 ft 393 kts 293°
2026-04-21 15:50 34.36781 -119.44752 38065 ft 392 kts 293°
2026-04-21 15:51 34.39655 -119.50385 38045 ft 392 kts 293°
2026-04-21 15:51 34.41165 -119.53128 38035 ft 403 kts 302°
2026-04-21 15:51 34.43195 -119.55581 38072 ft 414 kts 306°
2026-04-21 15:52 34.47130 -119.60553 38103 ft 414 kts 305°
2026-04-21 15:52 34.49155 -119.63056 37979 ft 412 kts 304°
2026-04-21 15:52 34.51139 -119.65540 38044 ft 409 kts 304°
2026-04-21 15:53 34.55161 -119.70499 38038 ft 414 kts 305°
2026-04-21 15:53 34.59217 -119.75410 37880 ft 405 kts 303°
2026-04-21 15:54 34.61169 -119.77891 36950 ft 409 kts 303°
2026-04-21 15:54 34.63141 -119.80404 36054 ft 410 kts 301°
2026-04-21 15:54 34.65102 -119.82960 35379 ft 420 kts 306°
2026-04-21 15:54 34.67363 -119.85261 34702 ft 424 kts 307°
2026-04-21 15:55 34.69281 -119.87851 34398 ft 407 kts 299°
2026-04-21 15:55 34.71254 -119.90421 34117 ft 419 kts 301°
2026-04-21 15:55 34.75389 -119.95443 33993 ft 424 kts 306°
2026-04-21 15:56 34.79634 -120.00385 34046 ft 421 kts 305°
2026-04-21 15:56 34.83854 -120.05315 34063 ft 421 kts 305°
2026-04-21 15:57 34.88069 -120.10275 33979 ft 419 kts 304°
2026-04-21 15:57 34.90166 -120.12742 34116 ft 419 kts 304°
2026-04-21 15:57 34.92272 -120.15216 34069 ft 422 kts 304°
2026-04-21 15:58 34.96505 -120.20184 34015 ft 421 kts 304°
2026-04-21 15:58 35.00733 -120.25177 34055 ft 423 kts 304°
2026-04-21 15:59 35.04924 -120.30122 34058 ft 421 kts 304°
2026-04-21 15:59 35.09152 -120.35122 34059 ft 424 kts 304°
2026-04-21 16:00 35.13399 -120.40151 34119 ft 425 kts 304°
2026-04-21 16:00 35.17635 -120.45170 34023 ft 423 kts 304°
2026-04-21 16:01 35.21872 -120.50188 34048 ft 424 kts 304°
2026-04-21 16:01 35.26068 -120.55191 34065 ft 427 kts 304°
2026-04-21 16:02 35.30336 -120.60274 34061 ft 428 kts 304°
2026-04-21 16:02 35.34607 -120.65373 34040 ft 428 kts 304°
2026-04-21 16:03 35.38904 -120.70453 34056 ft 431 kts 306°
2026-04-21 16:03 35.43171 -120.75575 34053 ft 433 kts 304°
2026-04-21 16:04 35.47453 -120.80743 34071 ft 435 kts 306°
2026-04-21 16:04 35.52288 -120.85407 34074 ft 442 kts 311°
2026-04-21 16:05 35.57189 -120.90008 34080 ft 443 kts 312°
2026-04-21 16:05 35.62153 -120.94625 34023 ft 450 kts 313°
2026-04-21 16:06 35.67143 -120.99268 34031 ft 449 kts 312°
2026-04-21 16:06 35.72101 -121.03889 34017 ft 447 kts 312°
2026-04-21 16:07 35.77081 -121.08538 34024 ft 451 kts 312°
2026-04-21 16:07 35.82074 -121.13204 34037 ft 453 kts 312°
2026-04-21 16:08 35.89586 -121.20243 34023 ft 452 kts 312°
2026-04-21 16:09 35.94606 -121.24955 34060 ft 457 kts 312°
2026-04-21 16:09 35.98790 -121.28884 33936 ft 445 kts 312°
2026-04-21 16:09 36.01219 -121.31166 33804 ft 433 kts 311°
2026-04-21 16:10 36.03576 -121.33386 33684 ft 420 kts 311°
2026-04-21 16:10 36.05872 -121.35550 33496 ft 409 kts 311°
2026-04-21 16:10 36.09148 -121.37987 33470 ft 419 kts 319°
2026-04-21 16:11 36.13277 -121.41273 33319 ft 430 kts 316°
2026-04-21 16:11 36.15834 -121.43308 32865 ft 439 kts 317°
2026-04-21 16:11 36.18416 -121.45346 32198 ft 441 kts 316°
2026-04-21 16:11 36.20980 -121.47367 31605 ft 443 kts 317°
2026-04-21 16:12 36.23590 -121.49424 30936 ft 447 kts 317°
2026-04-21 16:12 36.26259 -121.51531 30265 ft 461 kts 317°
2026-04-21 16:12 36.29000 -121.53688 29389 ft 470 kts 317°
2026-04-21 16:12 36.31777 -121.55872 28519 ft 474 kts 317°
2026-04-21 16:13 36.34562 -121.58069 27784 ft 473 kts 317°
2026-04-21 16:13 36.37333 -121.60263 27076 ft 473 kts 318°
2026-04-21 16:13 36.40124 -121.62466 26350 ft 475 kts 318°
2026-04-21 16:13 36.42921 -121.64681 25546 ft 480 kts 319°
2026-04-21 16:14 36.45757 -121.66928 24712 ft 484 kts 319°
2026-04-21 16:14 36.48608 -121.69186 23932 ft 486 kts 319°
2026-04-21 16:14 36.51443 -121.71422 23180 ft 480 kts 319°
2026-04-21 16:14 36.54199 -121.73596 22563 ft 469 kts 320°
2026-04-21 16:15 36.56913 -121.75740 22064 ft 454 kts 320°
2026-04-21 16:15 36.59540 -121.77820 21571 ft 442 kts 320°
2026-04-21 16:15 36.62104 -121.79852 21078 ft 432 kts 320°
2026-04-21 16:15 36.64617 -121.81844 20611 ft 424 kts 321°
2026-04-21 16:16 36.67080 -121.83798 20106 ft 414 kts 322°
2026-04-21 16:16 36.69478 -121.85702 19660 ft 404 kts 322°
2026-04-21 16:16 36.71821 -121.87564 19235 ft 394 kts 322°
2026-04-21 16:16 36.74203 -121.89199 18693 ft 395 kts 337°
2026-04-21 16:17 36.76873 -121.90077 18253 ft 398 kts 345°
2026-04-21 16:17 36.79577 -121.90881 17698 ft 399 kts 345°
2026-04-21 16:17 36.82296 -121.91670 17147 ft 401 kts 345°
2026-04-21 16:17 36.85003 -121.92438 16621 ft 397 kts 345°
2026-04-21 16:18 36.87676 -121.93191 16109 ft 392 kts 345°
2026-04-21 16:18 36.90319 -121.93930 15594 ft 387 kts 345°
2026-04-21 16:18 36.92926 -121.94661 15090 ft 381 kts 345°
2026-04-21 16:18 36.95480 -121.95437 14582 ft 374 kts 339°
2026-04-21 16:19 36.97912 -121.96417 14071 ft 370 kts 339°
2026-04-21 16:19 37.00350 -121.97386 13571 ft 365 kts 339°
2026-04-21 16:19 37.02786 -121.98340 13037 ft 360 kts 339°
2026-04-21 16:19 37.05128 -121.99249 12575 ft 353 kts 339°
2026-04-21 16:20 37.07442 -122.00146 12119 ft 343 kts 339°
2026-04-21 16:20 37.09692 -122.01019 11640 ft 335 kts 339°
2026-04-21 16:20 37.11896 -122.01872 11195 ft 326 kts 339°
2026-04-21 16:20 37.14040 -122.02703 10772 ft 318 kts 339°
2026-04-21 16:21 37.16133 -122.03515 10366 ft 311 kts 339°
2026-04-21 16:21 37.18152 -122.04297 9976 ft 305 kts 339°
2026-04-21 16:21 37.20167 -122.05081 9518 ft 301 kts 339°
2026-04-21 16:21 37.22151 -122.05847 8994 ft 295 kts 339°
2026-04-21 16:22 37.24101 -122.06596 8645 ft 290 kts 339°
2026-04-21 16:22 37.26019 -122.07343 8332 ft 286 kts 339°
2026-04-21 16:22 37.27918 -122.08099 7939 ft 285 kts 339°
2026-04-21 16:22 37.29787 -122.08832 7492 ft 285 kts 339°
2026-04-21 16:23 37.31683 -122.09578 7033 ft 284 kts 339°
2026-04-21 16:23 37.33551 -122.10314 6704 ft 278 kts 339°
2026-04-21 16:23 37.35376 -122.11033 6417 ft 272 kts 339°
2026-04-21 16:23 37.37171 -122.11706 6055 ft 264 kts 342°
2026-04-21 16:24 37.38924 -122.12262 5730 ft 257 kts 343°
2026-04-21 16:24 37.40638 -122.12790 5394 ft 250 kts 343°
2026-04-21 16:24 37.42279 -122.13299 5148 ft 238 kts 343°
2026-04-21 16:24 37.43852 -122.13787 4821 ft 233 kts 343°
2026-04-21 16:25 37.45418 -122.14282 4460 ft 231 kts 342°
2026-04-21 16:25 37.46967 -122.14763 4101 ft 228 kts 343°
2026-04-21 16:25 37.48494 -122.15247 3767 ft 223 kts 342°
2026-04-21 16:25 37.49968 -122.15705 3434 ft 215 kts 343°
2026-04-21 16:26 37.51390 -122.16158 3124 ft 206 kts 342°
2026-04-21 16:26 37.52710 -122.16685 2958 ft 194 kts 324°
2026-04-21 16:26 37.53640 -122.17844 2999 ft 186 kts 301°
2026-04-21 16:26 37.54335 -122.19198 2905 ft 187 kts 296°
2026-04-21 16:27 37.54979 -122.20603 2670 ft 184 kts 294°
2026-04-21 16:27 37.55591 -122.22020 2465 ft 183 kts 294°
2026-04-21 16:27 37.56193 -122.23434 2244 ft 184 kts 293°
2026-04-21 16:27 37.56792 -122.24848 1998 ft 178 kts 293°
2026-04-21 16:28 37.57340 -122.26145 1796 ft 158 kts 292°
2026-04-21 16:28 37.57847 -122.27344 1565 ft 153 kts 293°
2026-04-21 16:28 37.58341 -122.28507 1333 ft 151 kts 292°
2026-04-21 16:28 37.58827 -122.29673 1107 ft 149 kts 294°
2026-04-21 16:29 37.59309 -122.30821 901 ft 150 kts 294°
2026-04-21 16:29 37.59795 -122.31996 703 ft 152 kts 294°
2026-04-21 16:29 37.60276 -122.33202 579 ft 156 kts 295°
2026-04-21 16:29 37.60799 -122.34424 310 ft 160 kts 297°
2026-04-21 16:30 37.61330 -122.35651 100 ft 158 kts 296°
2026-04-21 16:30 37.61817 -122.36827 28 ft 139 kts 298°
2026-04-21 16:30 37.62176 -122.37678 24 ft 82 kts 297°
2026-04-21 16:30 37.62403 -122.38219 28 ft 58 kts 298°
2026-04-21 16:31 37.62497 -122.38580 24 ft 36 kts 276°
2026-04-21 16:31 37.62474 -122.38861 24 ft 25 kts 227°
2026-04-21 16:31 37.62327 -122.38887 24 ft 22 kts 128°
2026-04-21 16:31 37.62256 -122.38721 25 ft 22 kts 117°
2026-04-21 16:32 37.62181 -122.38539 24 ft 24 kts 116°
2026-04-21 16:32 37.62101 -122.38344 25 ft 26 kts 118°
2026-04-21 16:32 37.62019 -122.38136 24 ft 27 kts 117°
2026-04-21 16:32 37.61904 -122.37939 29 ft 29 kts 142°
2026-04-21 16:33 37.61724 -122.37866 27 ft 25 kts 184°
2026-04-21 16:33 37.61572 -122.37932 24 ft 17 kts 207°
2026-04-21 16:33 37.61468 -122.38001 27 ft 18 kts 207°
2026-04-21 16:33 37.61396 -122.38125 24 ft 19 kts 243°
2026-04-21 16:34 37.61320 -122.38233 27 ft 15 kts 254°
2026-04-21 16:34 37.61261 -122.38318 24 ft 13 kts 207°
2026-04-21 16:34 37.61217 -122.38351 27 ft 1 kts 235°
2026-04-21 16:34 37.61218 -122.38365 26 ft 5 kts 275°
2026-04-21 16:35 37.61230 -122.38400 24 ft 1 kts 297°
2026-04-21 16:35 37.61232 -122.38405 24 ft 0 kts 297°